• In Romania
  • List of Countries
  • For 7 days
  • Water Temperature
  • Satellite Maps
  • Weather Map
  • Weather Widgets
  • user-avatar
    Login

    Hourly Weather Brussels

    Today, 21 February, Wednesday

    Time Temperature Precipitation Wind Pressure Humidity
    00:00 -2°C° 0 mm 3 mps 764 mmHg 80%
    01:00 -2°C° 0 mm 3 mps 764 mmHg 81%
    02:00 -2°C° 0 mm 3 mps 764 mmHg 82%
    03:00 -2°C° 0 mm 3 mps 764 mmHg 83%
    04:00 -2°C° 0 mm 3 mps 764 mmHg 83%
    05:00 -2°C° 0 mm 3 mps 765 mmHg 83%
    06:00 -4°C° 0 mm 3 mps 765 mmHg 84%
    07:00 -2°C° 0 mm 3 mps 765 mmHg 78%
    08:00 -1°C° 0 mm 3 mps 765 mmHg 72%
    09:00 -1°C° 0 mm 4 mps 765 mmHg 67%
    10:00 0°C° 0 mm 4 mps 765 mmHg 62%
    11:00 +1°C° 0 mm 4 mps 765 mmHg 57%
    12:00 +4°C° 0 mm 4 mps 765 mmHg 53%
    13:00 +4°C° 0 mm 4 mps 764 mmHg 52%
    14:00 +4°C° 0 mm 4 mps 764 mmHg 52%
    15:00 +4°C° 0 mm 4 mps 764 mmHg 52%
    16:00 +3°C° 0 mm 4 mps 764 mmHg 57%
    17:00 0°C° 0 mm 4 mps 764 mmHg 62%
    18:00 0°C° 0 mm 3 mps 764 mmHg 67%
    19:00 -1°C° 0 mm 3 mps 764 mmHg 69%
    20:00 -1°C° 0 mm 3 mps 764 mmHg 71%
    21:00 -1°C° 0 mm 3 mps 764 mmHg 73%
    22:00 -2°C° 0 mm 3 mps 764 mmHg 74%
    23:00 -2°C° 0 mm 3 mps 764 mmHg 75%

    Tomorrow, 22 February, Thursday

    Time Temperature Precipitation Wind Pressure Humidity
    00:00 -2°C° 0 mm 3 mps 764 mmHg 77%
    01:00 -2°C° 0 mm 3 mps 764 mmHg 77%
    02:00 -2°C° 0 mm 3 mps 764 mmHg 77%
    03:00 -2°C° 0 mm 3 mps 764 mmHg 78%
    04:00 -3°C° 0 mm 4 mps 764 mmHg 77%
    05:00 -3°C° 0 mm 4 mps 763 mmHg 77%
    06:00 -4°C° 0 mm 4 mps 763 mmHg 77%
    07:00 -3°C° 0 mm 4 mps 764 mmHg 71%
    08:00 -2°C° 0 mm 5 mps 764 mmHg 65%
    09:00 -2°C° 0 mm 6 mps 764 mmHg 59%
    10:00 -1°C° 0 mm 6 mps 764 mmHg 53%
    11:00 +1°C° 0 mm 6 mps 763 mmHg 47%
    12:00 +2°C° 0 mm 6 mps 763 mmHg 42%
    13:00 +2°C° 0 mm 6 mps 763 mmHg 41%
    14:00 +2°C° 0 mm 6 mps 763 mmHg 41%
    15:00 +3°C° 0 mm 6 mps 762 mmHg 40%
    16:00 +1°C° 0 mm 6 mps 762 mmHg 45%
    17:00 0°C° 0 mm 5 mps 763 mmHg 51%
    18:00 -1°C° 0 mm 4 mps 763 mmHg 56%
    19:00 -2°C° 0 mm 4 mps 763 mmHg 59%
    20:00 -2°C° 0 mm 5 mps 763 mmHg 62%
    21:00 -2°C° 0 mm 5 mps 763 mmHg 65%
    22:00 -3°C° 0 mm 4 mps 763 mmHg 67%
    23:00 -3°C° 0 mm 4 mps 763 mmHg 69%

    Day after tomorrow, 23 February, Friday

    Time Temperature Precipitation Wind Pressure Humidity
    00:00 -3°C° 0 mm 4 mps 763 mmHg 71%
    01:00 -4°C° 0 mm 4 mps 763 mmHg 71%
    02:00 -4°C° 0 mm 4 mps 763 mmHg 72%
    03:00 -4°C° 0 mm 4 mps 763 mmHg 72%
    04:00 -4°C° 0 mm 4 mps 763 mmHg 72%
    05:00 -4°C° 0 mm 4 mps 763 mmHg 71%
    06:00 -5°C° 0 mm 5 mps 763 mmHg 70%
    07:00 -4°C° 0 mm 5 mps 763 mmHg 64%
    08:00 -3°C° 0 mm 6 mps 763 mmHg 58%
    09:00 -3°C° 0 mm 7 mps 763 mmHg 52%
    10:00 -2°C° 0 mm 7 mps 763 mmHg 47%
    11:00 -1°C° 0 mm 7 mps 763 mmHg 43%
    12:00 0°C° 0 mm 7 mps 762 mmHg 38%
    13:00 +2°C° 0 mm 7 mps 762 mmHg 37%
    14:00 +2°C° 0 mm 7 mps 762 mmHg 36%
    15:00 +2°C° 0 mm 7 mps 761 mmHg 35%
    16:00 +1°C° 0 mm 6 mps 761 mmHg 38%
    17:00 0°C° 0 mm 5 mps 761 mmHg 41%
    18:00 -2°C° 0 mm 5 mps 762 mmHg 44%
    19:00 -2°C° 0 mm 5 mps 762 mmHg 44%
    20:00 -4°C° 0 mm 5 mps 762 mmHg 44%
    21:00 -4°C° 0 mm 5 mps 762 mmHg 44%
    22:00 -4°C° 0 mm 5 mps 762 mmHg 45%
    23:00 -4°C° 0 mm 5 mps 762 mmHg 46%

    24 February, Saturday

    Time Temperature Precipitation Wind Pressure Humidity
    00:00 -5°C° 0 mm 5 mps 762 mmHg 46%
    01:00 -5°C° 0 mm 5 mps 762 mmHg 46%
    02:00 -5°C° 0 mm 6 mps 762 mmHg 46%
    03:00 -5°C° 0 mm 6 mps 762 mmHg 47%
    04:00 -5°C° 0 mm 6 mps 762 mmHg 45%
    05:00 -4°C° 0 mm 6 mps 762 mmHg 44%
    06:00 -4°C° 0 mm 6 mps 762 mmHg 43%
    07:00 -4°C° 0 mm 6 mps 762 mmHg 40%
    08:00 -3°C° 0 mm 7 mps 762 mmHg 37%
    09:00 -2°C° 0 mm 7 mps 762 mmHg 34%
    10:00 -1°C° 0 mm 7 mps 762 mmHg 33%
    11:00 0°C° 0 mm 7 mps 762 mmHg 32%
    12:00 +1°C° 0 mm 8 mps 762 mmHg 31%
    13:00 +2°C° 0 mm 8 mps 762 mmHg 32%
    14:00 +3°C° 0 mm 7 mps 762 mmHg 33%
    15:00 +3°C° 0 mm 7 mps 762 mmHg 34%
    16:00 +2°C° 0 mm 7 mps 762 mmHg 38%
    17:00 +1°C° 0 mm 6 mps 763 mmHg 42%
    18:00 -2°C° 0 mm 6 mps 763 mmHg 46%
    19:00 -2°C° 0 mm 6 mps 764 mmHg 48%
    20:00 -3°C° 0 mm 6 mps 764 mmHg 49%
    21:00 -3°C° 0 mm 6 mps 765 mmHg 50%
    22:00 -3°C° 0 mm 6 mps 765 mmHg 52%
    23:00 -4°C° 0 mm 6 mps 765 mmHg 53%

    25 February, Sunday

    Time Temperature Precipitation Wind Pressure Humidity
    00:00 -4°C° 0 mm 6 mps 765 mmHg 55%
    01:00 -4°C° 0 mm 6 mps 765 mmHg 56%
    02:00 -5°C° 0 mm 6 mps 766 mmHg 57%
    03:00 -5°C° 0 mm 6 mps 766 mmHg 58%
    04:00 -5°C° 0 mm 6 mps 766 mmHg 57%
    05:00 -6°C° 0 mm 6 mps 766 mmHg 56%
    06:00 -6°C° 0 mm 6 mps 767 mmHg 54%
    07:00 -6°C° 0 mm 7 mps 767 mmHg 49%
    08:00 -4°C° 0 mm 7 mps 767 mmHg 44%
    09:00 -4°C° 0 mm 7 mps 768 mmHg 39%
    10:00 -3°C° 0 mm 7 mps 768 mmHg 37%
    11:00 -2°C° 0 mm 7 mps 768 mmHg 35%
    12:00 -1°C° 0 mm 7 mps 768 mmHg 32%
    13:00 -1°C° 0 mm 7 mps 768 mmHg 33%
    14:00 -1°C° 0 mm 6 mps 768 mmHg 33%
    15:00 -1°C° 0 mm 6 mps 767 mmHg 34%
    16:00 -2°C° 0 mm 6 mps 768 mmHg 36%
    17:00 -2°C° 0 mm 5 mps 768 mmHg 38%
    18:00 -5°C° 0 mm 5 mps 768 mmHg 39%
    19:00 -4°C° 0 mm 4 mps 768 mmHg 39%
    20:00 -5°C° 0 mm 4 mps 769 mmHg 38%
    21:00 -5°C° 0 mm 4 mps 769 mmHg 38%
    22:00 -5°C° 0 mm 4 mps 769 mmHg 38%
    23:00 -7°C° 0 mm 4 mps 769 mmHg 38%

    26 February, Monday

    Time Temperature Precipitation Wind Pressure Humidity
    00:00 -7°C° 0 mm 4 mps 769 mmHg 38%
    01:00 -7°C° 0 mm 4 mps 769 mmHg 38%
    02:00 -7°C° 0 mm 4 mps 769 mmHg 37%
    03:00 -7°C° 0 mm 4 mps 769 mmHg 37%
    04:00 -7°C° 0 mm 4 mps 769 mmHg 36%
    05:00 -7°C° 0 mm 4 mps 769 mmHg 36%
    06:00 -7°C° 0 mm 4 mps 769 mmHg 36%
    07:00 -7°C° 0 mm 5 mps 769 mmHg 34%
    08:00 -6°C° 0 mm 5 mps 769 mmHg 33%
    09:00 -6°C° 0 mm 6 mps 769 mmHg 31%
    10:00 -5°C° 0 mm 6 mps 768 mmHg 29%
    11:00 -4°C° 0 mm 6 mps 768 mmHg 27%
    12:00 -4°C° 0 mm 6 mps 768 mmHg 25%
    13:00 -3°C° 0 mm 6 mps 767 mmHg 25%
    14:00 -3°C° 0 mm 6 mps 767 mmHg 25%
    15:00 -3°C° 0 mm 6 mps 766 mmHg 25%
    16:00 -4°C° 0 mm 5 mps 766 mmHg 29%
    17:00 -5°C° 0 mm 5 mps 766 mmHg 33%
    18:00 -5°C° 0 mm 4 mps 766 mmHg 36%
    19:00 -5°C° 0 mm 4 mps 766 mmHg 39%
    20:00 -5°C° 0 mm 4 mps 766 mmHg 41%
    21:00 -7°C° 0 mm 4 mps 767 mmHg 44%
    22:00 -7°C° 0 mm 4 mps 766 mmHg 46%
    23:00 -7°C° 0 mm 4 mps 766 mmHg 47%
    Show more